Weather History for Valparaiso, FL

Change the Weather History Date:

Saturday, January 19, 2013

  Actual Average Record
Temperature  
Mean Temperature 48 °F -  
Max Temperature 62 °F 62 °F 75 °F (1952)
Min Temperature 35 °F 39 °F 10 °F (1977)
Degree Days  
Heating Degree Days 16    
Moisture  
Dew Point 39 °F    
Average Humidity 67    
Maximum Humidity 85    
Minimum Humidity 48    
Precipitation  
Precipitation 0.00 in - - ()
Sea Level Pressure  
Sea Level Pressure 30.33 in    
Wind  
Wind Speed 6 mph (NNE)    
Max Wind Speed 10 mph    
Max Gust Speed -    
Visibility 10 miles    
Events      
Averages and records for this station are not official NWS values.
T = Trace of Precipitation, MM = Missing Value Source: NWS Daily Summary

Daily Weather History Graph

Daily Weather History Graph

Search for Another Location

Airport:

Trip Planner

Search our weather history database for the weather conditions in past years. The results will help you decide how hot, cold, wet, or windy it might be!

Date:

Astronomy

Jan. 19, 2013 Rise Set
Actual Time 6:42 AM CST 5:11 PM CST
Civil Twilight 6:17 AM CST 5:37 PM CST
Nautical Twilight 5:47 AM CST 6:06 PM CST
Astronomical Twilight 5:18 AM CST 6:35 PM CST
Moon 11:32 AM CST (1/19) 12:22 AM CST (1/19)
Length of Visible Light 11h 20m
Length of Day
10h 28m
First Quarter, 57% of the Moon is Illuminated
Jan 19
First Quarter
Jan 26
Full
Feb 3
Last Quarter
Feb 10
New
Feb 17
First Quarter

Hourly Weather History & Observations

Time (CST) Temp. Windchill Dew Point Humidity Pressure Visibility Wind Dir Wind Speed Gust Speed Precip Events Conditions
12:55 AM 37.8 °F 33.3 °F 32.2 °F 80% 30.38 in 10.0 mi NE 5.8 mph - N/A   Clear
1:59 AM 38.7 °F 33.6 °F 31.6 °F 76% 30.37 in 10.0 mi ENE 6.9 mph - N/A   Clear
2:55 AM 38.1 °F 33.7 °F 31.8 °F 78% 30.37 in 10.0 mi NNE 5.8 mph - N/A   Clear
3:56 AM 37.4 °F 33.8 °F 32.0 °F 81% 30.38 in 10.0 mi North 4.6 mph - N/A   Clear
4:55 AM 36.3 °F 32.5 °F 31.3 °F 82% 30.38 in 10.0 mi North 4.6 mph - N/A   Clear
5:56 AM 35.2 °F 32.4 °F 31.1 °F 85% 30.38 in 10.0 mi North 3.5 mph - N/A   Partly Cloudy
6:55 AM 36.7 °F 30.5 °F 31.1 °F 80% 30.38 in 10.0 mi North 8.1 mph - N/A   Scattered Clouds
7:55 AM 42.4 °F 38.1 °F 32.7 °F 68% 30.41 in 10.0 mi NNE 6.9 mph - N/A   Scattered Clouds
8:55 AM 47.5 °F - 32.0 °F 55% 30.42 in 10.0 mi NNE 6.9 mph - N/A   Scattered Clouds
9:55 AM 52.5 °F - 33.6 °F 49% 30.41 in 10.0 mi NE 10.4 mph - N/A   Scattered Clouds
10:55 AM 54.3 °F - 36.0 °F 50% 30.40 in 10.0 mi NNE 8.1 mph - N/A   Mostly Cloudy
11:55 AM 57.7 °F - 38.1 °F 48% 30.35 in 10.0 mi NE 4.6 mph - N/A   Mostly Cloudy
12:55 PM 60.6 °F - 41.4 °F 49% 30.31 in 10.0 mi Variable 2.3 mph - N/A   Mostly Cloudy
1:55 PM 62.4 °F - 43.2 °F 49% 30.29 in 10.0 mi Variable 5.8 mph - N/A   Mostly Cloudy
2:55 PM 62.4 °F - 44.2 °F 51% 30.27 in 10.0 mi NNE 5.8 mph - N/A   Mostly Cloudy
3:56 PM 61.5 °F - 44.6 °F 54% 30.27 in 10.0 mi North 6.9 mph - N/A   Mostly Cloudy
4:58 PM 59.7 °F - 45.0 °F 58% 30.27 in 10.0 mi North 5.8 mph - N/A   Mostly Cloudy
5:46 PM 59.0 °F - 44.6 °F 59% 30.25 in 10.0 mi NNE 4.6 mph - N/A   Mostly Cloudy
5:55 PM 58.5 °F - 44.8 °F 60% 30.27 in 10.0 mi North 4.6 mph - N/A   Overcast
6:56 PM 56.7 °F - 45.7 °F 67% 30.28 in 10.0 mi NNE 4.6 mph - N/A   Overcast
7:55 PM 54.3 °F - 46.0 °F 74% 30.30 in 10.0 mi NW 2.3 mph - N/A   Mostly Cloudy
8:58 PM 52.9 °F - 46.0 °F 78% 30.28 in 10.0 mi NNE 5.8 mph - N/A   Mostly Cloudy
9:58 PM 51.6 °F - 45.3 °F 79% 30.26 in 10.0 mi ENE 4.6 mph - N/A   Mostly Cloudy
10:56 PM 50.4 °F - 45.1 °F 82% 30.25 in 10.0 mi NNW 2.3 mph - N/A   Mostly Cloudy
11:55 PM 50.5 °F - 45.0 °F 81% 30.25 in 10.0 mi NNW 3.5 mph - N/A   Mostly Cloudy